weather.gov     
National Weather Service

Regional Weather Roundup
NWS Homepage
This page is being discontinued on March 12, 2014.
The same data is available at this site. Please update your bookmarks.
Thank you, and we apologize for the inconvenience.
Please send an email to SR-SRH.Webmaster@noaa.gov with any concerns.


Current Version
Previous Version:    01  02  03  04  05  06  07  08  09  10  11  12  13  14  15  16  17  18  19  20  21  22  23  24  25  26  27  
[Printable]
977
ASUS41 KBOX 280410
RWRBOX

REGIONAL WEATHER ROUNDUP
NATIONAL WEATHER SERVICE TAUNTON MA
1100 PM EST THU NOV 27 2014

NOTE:  "FAIR" INDICATES FEW OR NO CLOUDS BELOW 12,000 FEET WITH NO
SIGNIFICANT WEATHER AND/OR OBSTRUCTIONS TO VISIBILITY.  THE FOLLOWING
OBSERVATION LOCATIONS DO NOT REPORT PRESENT WEATHER...PROVINCETOWN...
SMITHFIELD...BLOCK ISLAND...KEENE...AND OXFORD.

MAZALL-280500-
EASTERN MASSACHUSETTS

CITY           SKY/WX    TMP DP  RH WIND       PRES   REMARKS
BOSTON         LGT SNOW  31  27  85 NW9       30.01S FOG     WCI  23
BEVERLY        LGT SNOW  30  27  88 NW7       30.00S FOG     WCI  23
LAWRENCE       LGT SNOW  29  27  92 NW5       30.03R FOG     WCI  24
BEDFORD        LGT SNOW  29  24  82 NW8       30.00S WCI  21
BLUE HILL        N/A     27  26  96 NW13      29.96S WCI  16
NORWOOD        LGT SNOW  30  27  88 NW6       30.02R FOG     WCI  24
MARSHFIELD     MIX PCPN N/A N/A N/A NW7       30.01R
PLYMOUTH       CLOUDY    32  31  96 NW8       29.99S WCI  25
TAUNTON        CLOUDY    32  28  85 N6        30.00S WCI  26
NEW BEDFORD    CLOUDY    33  31  92 VRB5      29.98S WCI  29
$$

MAZALL-280500-
CAPE COD AND THE ISLANDS

CITY           SKY/WX    TMP DP  RH WIND       PRES   REMARKS
FALMOUTH       MIX PCPN  34  32  93 NW6       29.98S WCI  29
HYANNIS        LGT RAIN  36  35  96 NW3       29.96S
CHATHAM        LGT RAIN  37  35  92 VRB3      29.98R FOG
PROVINCETOWN   CLOUDY    37  34  87 N13       29.98S WCI  29
NANTUCKET      LGT RAIN  39  36  89 N5        29.96S FOG
MARTHAS VNYRD  CLOUDY    36  34  92 N8        29.97S WCI  30
$$

MAZALL-280500-
CENTRAL AND WESTERN MASSACHUSETTS

CITY           SKY/WX    TMP DP  RH WIND       PRES   REMARKS
WORCESTER      CLOUDY    27  24  89 NW6       29.96S WCI  20
FITCHBURG      CLOUDY    29  24  82 N6        30.01S WCI  23
ORANGE         LGT SNOW  28  26  92 CALM      30.01S FOG
SPRINGFIELD    CLOUDY    29  27  90 N6        30.02S WCI  23
WESTFIELD      CLOUDY    30  27  88 N3        30.02S
NORTH ADAMS    LGT SNOW  26  25  96 CALM      30.02S FOG
PITTSFIELD     LGT SNOW  25  23  92 W5        29.97S FOG     WCI  19
$$

RIZALL-280500-
RHODE ISLAND

CITY           SKY/WX    TMP DP  RH WIND       PRES   REMARKS
PROVIDENCE     CLOUDY    32  29  88 N8        30.01R WCI  25
NEWPORT        CLOUDY    34  29  82 N9        29.99R WCI  27
BLOCK ISLAND   CLOUDY    36  28  75 N10G16    29.99S WCI  28
SMITHFIELD     CLOUDY    30  21  69 N5        29.98S WCI  25
WESTERLY       LGT RAIN  33  29  85 N8        30.01R WCI  26
$$

CTZALL-280500-
CONNECTICUT

CITY           SKY/WX    TMP DP  RH WIND       PRES   REMARKS
BRADLEY INTL   CLOUDY    33  26  75 N7        30.02S WCI  27
HARTFORD       CLOUDY    32  27  81 N7        30.03S WCI  26
BRIDGEPORT     CLOUDY    34  27  75 NW10      30.04S WCI  26
DANBURY        PTCLDY    31  24  75 NW5       30.05R WCI  26
GROTON         FLURRIES  32  30  92 N10       30.01R WCI  24
NEW HAVEN      CLOUDY    37  27  67 NW9       30.03R WCI  30
CHESTER        CLOUDY    32  30  93 N8        30.01R WCI  25
MERIDEN        CLOUDY    33  25  72 NW8       30.03S WCI  26
WILLIMANTIC    CLOUDY    32  29  88 N3        30.02R
OXFORD         CLOUDY    30  21  69 NW5       30.03S WCI  25
$$

MEZ002-015-021-024-NHZ003-005-008-011-012-014-VTZ005-008-280500-
NORTHERN NEW ENGLAND

CITY           SKY/WX    TMP DP  RH WIND       PRES   REMARKS
PORTLAND ME    MOCLDY    30  21  69 N12       30.03S WCI  20
BANGOR ME      PTCLDY    15  11  83 CALM      30.05R
CONCORD NH     NOT AVBL
MANCHESTER NH  LGT SNOW  28  24  85 N6        30.00S FOG     WCI  22
NASHUA NH      LGT SNOW  29  26  88 NW10      30.02S FOG     WCI  20
PORTSMOUTH NH  FLURRIES  31  24  75 N12       30.00S WCI  21
JAFFREY NH     LGT SNOW  25  23  92 CALM      29.98S FOG
KEENE NH         N/A     28  27  93 CALM      30.01
BURLINGTON VT  CLOUDY    26  18  71 E5        30.05S WCI  20
MT. WASHINGTON FOG        5   5 100 SE17        N/A  VSB 1/16WCI -14
$$

NYZ052-076-280500-
EASTERN NEW YORK

CITY           SKY/WX    TMP DP  RH WIND       PRES   REMARKS
ALBANY         LGT SNOW  29  26  89 N6        30.06S FOG     WCI  23
NEW YORK CITY  CLOUDY    36  26  67 NW15      30.06R WCI  27
$$

ANZALL-280500-
MARINE OBSERVATIONS

STATION/POSITION TIME  TEMP    WIND        PRES    VSBY  WAVE
                       AIR SEA DIR/SP/G                  HT/PER
                 (UTC) (F)     (DEG/KT/KT) (MB)    (MI)  (FT/S)
BOSTON BUOY      0350   34 49  330/ 14/ 16 1015.7R         5/ 8
BUZZARDS BAY     0400          340/ 14/ 15 1015.8R
NANTUCKET SOUND  0350   39 47  350/  8/ 10 1014.6S         1/ 5
MASS BAY-STELLWA 0304   35 50  320/ 14/ 16   N/A    1 7/8  5/ 8
ISLE OF SHOALS   0400   35      30/ 16/ 19 1015.1R
S OF BLOCK IS    0308      55                N/A           6/11
$$

......................KEY.........................
  SKY/WX - SKY CONDITION/PRESENT WEATHER
  TMP    - TEMPERATURE IN FAHRENHEIT
  DWPT   - DEWPOINT IN FAHRENHEIT
  RH     - RELATIVE HUMIDITY IN PERCENT
  WIND   - DIRECTION AND SPEED IN MPH
  PRES   - MEAN SEA LEVEL PRESSURE IN INCHES OF HG
  WCI    - WIND CHILL INDEX
  VSB    - VISIBILITY IN MILES
  HX     - HEAT INDEX
  TC     - TEMPERATURE IN CELSIUS
  VRB    - VARIABLE WIND DIRECTION
  N/A    - NOT AVAILABLE




U.S. Dept. of Commerce
NOAA National Weather Service
1325 East West Highway
Silver Spring, MD 20910
E-mail: w-nws.webmaster@noaa.gov
Page last modified: May 16, 2007
NATIONAL WEATHER SERVICE: for Safety, for Work, for Fun - FOR LIFE